Powrót do katalogu

FENGYUN 1C DEB

AktywnySSO
NORAD 31175·DEBRIS·🇨🇳 China

Wystrzelony May 10, 1999 z Taiyuan Satellite Launch Center

Loading…

Następne Przeloty (najbliższe 24 godziny)

TLE

ŚwieżeSource: Space-Track

Epoka: Sep 11, 2026, 06:10 UTC

1 31175U 99025BJD 26254.25696803  .00018429  00000-0  27851-2 0  9999
2 31175  98.3939 266.0960 0060750  33.6029 326.9007 14.73053794696359

Śledź FENGYUN 1C DEB w czasie rzeczywistym z AllMySat

Download on the App Store